This demonstration page uses our WeatherBlox Daily Observations layout. Learn more.

Left ArrowRight Arrow

34.02893, -84.19858

Hourly Observations for August 23, 2020

Temp ( °F °C ) Dew Point ( °F °C ) Humidity (%) Winds ( mph kmh ) Pressure ( in mb ) Visibility ( mi km ) Precip ( " mm )
12:53 am 00:53 Clear 72 22.2 71 21.7 97 97 SSE 3 6 30.01 1016 10 16 0.00 0.00
1:31 am 01:31 Mostly Clear 71 21.7 71 21.7 100 100 SSE 3 6 30.03 1017 10 16 0.00 0.00
1:53 am 01:53 Partly Cloudy 71 21.7 71 21.7 100 100 Calm 30.01 1016 10 16 0.00 0.00
2:12 am 02:12 Mostly Cloudy 71 21.7 71 21.7 100 100 Calm 30.03 1017 10 16 0.00 0.00
2:30 am 02:30 Cloudy 72 22.2 71 21.7 97 97 S 3 6 30.03 1017 10 16 0.00 0.00
2:53 am 02:53 Cloudy 72 22.2 71 21.7 97 97 S 5 7 30.01 1016 10 16 0.00 0.00
3:53 am 03:53 Cloudy 72 22.2 71 21.7 97 97 SSE 3 6 30.02 1017 10 16 0.00 0.00
4:22 am 04:22 Mostly Cloudy 71 21.7 70 21.1 96 96 SSW 3 6 30.04 1017 10 16 0.00 0.00
4:53 am 04:53 Mostly Cloudy 71 21.7 70 21.1 96 96 S 5 7 30.02 1017 10 16 0.00 0.00
5:43 am 05:43 Cloudy 71 21.7 70 21.1 96 96 S 5 7 30.05 1018 10 16 0.00 0.00
5:53 am 05:53 Cloudy 71 21.7 70 21.1 96 96 SSE 3 6 30.04 1017 10 16 0.00 0.00
6:53 am 06:53 Mostly Cloudy 70 21.1 69 20.6 97 97 Calm 30.05 1018 10 16 0.00 0.00
7:53 am 07:53 Cloudy 71 21.7 70 21.1 96 96 Calm 30.07 1018 10 16 0.00 0.00
8:53 am 08:53 Cloudy 72 22.2 69 20.6 91 91 Calm 30.09 1019 10 16 0.00 0.00
9:53 am 09:53 Cloudy 74 23.3 71 21.7 91 91 S 6 9 30.09 1019 10 16 0.00 0.00
10:53 am 10:53 Cloudy 76 24.4 70 21.1 82 82 WSW 3 6 30.10 1019 10 16 0.00 0.00
11:53 am 11:53 Mostly Cloudy 77 25 69 20.6 77 77 Calm 30.10 1019 10 16 0.00 0.00
12:53 pm 12:53 Mostly Cloudy 80 26.7 70 21.1 71 71 VRB 3 6 30.08 1019 10 16 0.00 0.00
1:00 pm 13:00 Mostly Sunny 79 26.1 69 20.6 72 72 Calm 30.08 1019 10 16 0.00 0.00
1:53 pm 13:53 Partly Cloudy 82 27.8 70 21.1 67 67 SSW 6 9 30.06 1018 10 16 0.00 0.00
2:53 pm 14:53 Mostly Cloudy 82 27.8 70 21.1 67 67 VRB 3 6 30.06 1018 10 16 0.00 0.00
3:53 pm 15:53 Partly Cloudy 85 29.4 71 21.7 63 63 SSE 7 11 30.05 1018 10 16 0.00 0.00
4:53 pm 16:53 Mostly Cloudy 84 28.9 71 21.7 65 65 SSE 8 13 30.04 1017 10 16 0.00 0.00
5:53 pm 17:53 Mostly Cloudy 84 28.9 71 21.7 65 65 VRB 3 6 30.04 1017 10 16 0.00 0.00
6:53 pm 18:53 Partly Cloudy 82 27.8 71 21.7 69 69 SE 6 9 30.05 1018 10 16 0.00 0.00
7:53 pm 19:53 Partly Cloudy 80 26.7 72 22.2 76 76 SE 3 6 30.05 1018 10 16 0.00 0.00
8:53 pm 20:53 Clear 77 25 71 21.7 82 82 SE 5 7 30.06 1018 10 16 0.00 0.00
9:53 pm 21:53 Mostly Clear 76 24.4 72 22.2 88 88 SSE 5 7 30.08 1019 10 16 0.00 0.00
10:53 pm 22:53 Mostly Clear 76 24.4 72 22.2 88 88 Calm 30.10 1019 10 16 0.00 0.00
11:53 pm 23:53 Cloudy 75 23.9 72 22.2 90 90 Calm 30.09 1019 10 16 0.00 0.00

Powered by AerisWeather